Terminal Aerodrome Forecast
Issued by NWS

Home | Current Version | Previous Version | Text Only | Print | Product List | Glossary On
Versions: 1 2 3 4 5 6 7 8 9 10 11 12 13 14 15 16 17 18 19 20 21 22 23 24 25 26 27 28 29 30 31 32 33 34 35 36 37 38 39 40 41 42 43 44 45 46 47 48 49 50
000
FTUS41 KCTP 061546 AAB
TAFBFD
TAF AMD
KBFD 061546Z 0616/0712 09006KT 3SM BR OVC002
     FM061900 12006KT P6SM VCSH BKN005 OVC012
     FM070300 15003KT 4SM BR OVC004
     FM070700 VRB03KT 1 1/2SM BR OVC002=

USA.gov is the U.S. government's official web portal to all federal, state and local government web resources and services.